Change the Weather History Date:

Monday, December 3, 2012

  Actual Average (KMAF) Record (KMAF)
Temperature  
Mean Temperature 64 °F 46 °F  
Max Temperature 77 °F 60 °F 83 °F (1954)
Min Temperature 51 °F 33 °F 19 °F (1985)
Degree Days  
Heating Degree Days 1 19  
Month to date heating degree days 55  
Since 1 July heating degree days 534  
Growing Degree Days 14 (Base 50)    
Moisture  
Dew Point 39 °F    
Average Humidity 54    
Maximum Humidity 100    
Minimum Humidity 13    
Precipitation  
Precipitation 0.00 in 0.02 in 0.84 in (2002)
Month to date precipitation 0.06  
Year to date precipitation 14.06  
Snow  
Snow - - - ()
Month to date snowfall  
Since 1 July snowfall  
Snow Depth -    
Sea Level Pressure  
Sea Level Pressure 30.01 in    
Wind  
Wind Speed 10 mph ()    
Max Wind Speed 16 mph    
Max Gust Speed 24 mph    
Visibility 7.2 miles    
Events      
T = Trace of Precipitation, MM = Missing Value Source: Averaged Metar Reports

Daily Weather History Graph

Daily Weather History Graph

Search for Another Location

Airport or City:

Trip Planner

Search our weather history database for the weather conditions in past years. The results will help you decide how hot, cold, wet, or windy it might be!

Date:

Astronomy

Dec. 03, 2012 Rise Set
Actual Time 7:35 AM CST 5:44 PM CST
Civil Twilight 7:08 AM CST 6:11 PM CST
Nautical Twilight 6:38 AM CST 6:41 PM CST
Astronomical Twilight 6:08 AM CST 7:11 PM CST
Moon 10:24 PM CST (12/3) 11:07 AM CST (12/3)
Length of Visible Light 11h 02m
Length of Day
10h 09m
Waning Gibbous, 78% of the Moon is Illuminated
Dec 3
Waning Gibbous
Dec 6
Last Quarter
Dec 13
New
Dec 19
First Quarter
Dec 28
Full

Hourly Weather History & Observations

Time (CST) Temp. Dew Point Humidity Pressure Visibility Wind Dir Wind Speed Gust Speed Precip Events Conditions
12:15 AM 55.4 °F 54.5 °F 97% 30.02 in 4.0 mi SSW 9.2 mph - N/A   Clear
12:35 AM 55.8 °F 54.7 °F 96% 30.01 in 4.0 mi SSW 12.7 mph 18.4 mph N/A   Clear
12:55 AM 55.8 °F 54.7 °F 96% 30.01 in 4.0 mi SSW 15.0 mph - N/A   Clear
1:15 AM 55.6 °F 54.9 °F 97% 30.00 in 3.0 mi SSW 13.8 mph 19.6 mph N/A   Scattered Clouds
1:35 AM 56.3 °F 55.6 °F 97% 29.99 in 3.0 mi SSW 13.8 mph - N/A   Mostly Cloudy
1:55 AM 56.8 °F 56.3 °F 98% 29.99 in 3.0 mi SSW 15.0 mph 20.7 mph N/A   Overcast
2:15 AM 57.2 °F 56.7 °F 98% 29.99 in 2.5 mi SSW 13.8 mph - N/A   Overcast
2:35 AM 56.8 °F 56.3 °F 98% 29.99 in 2.5 mi SSW 15.0 mph 20.7 mph N/A   Overcast
2:55 AM 56.8 °F 56.5 °F 99% 29.98 in 1.5 mi SSW 16.1 mph 24.2 mph N/A   Overcast
3:15 AM 56.8 °F 56.5 °F 99% 29.98 in 2.5 mi SSW 16.1 mph 20.7 mph N/A   Overcast
3:35 AM 56.7 °F 56.3 °F 99% 29.98 in 2.5 mi SSW 15.0 mph 23.0 mph N/A   Overcast
3:55 AM 56.7 °F 56.3 °F 99% 29.98 in 2.5 mi SSW 16.1 mph 20.7 mph N/A   Overcast
4:15 AM 56.3 °F 56.3 °F 100% 29.98 in 2.0 mi SSW 15.0 mph 21.9 mph N/A   Overcast
4:35 AM 55.8 °F 55.6 °F 99% 29.98 in 2.0 mi SW 11.5 mph 20.7 mph N/A   Overcast
4:55 AM 55.4 °F 55.0 °F 99% 29.97 in 1.8 mi SSW 12.7 mph 17.3 mph N/A   Overcast
5:15 AM 54.9 °F 54.7 °F 99% 29.97 in 0.8 mi SSW 10.4 mph - N/A   Overcast
5:35 AM 54.3 °F 54.3 °F 100% 29.97 in 0.8 mi SSW 12.7 mph - N/A   Overcast
5:55 AM 54.5 °F 54.5 °F 100% 29.97 in 1.0 mi SW 11.5 mph - N/A   Overcast
6:15 AM 54.1 °F 54.1 °F 100% 29.97 in 1.5 mi SW 13.8 mph - N/A   Overcast
6:35 AM 54.0 °F 54.0 °F 100% 29.97 in 1.5 mi SW 10.4 mph - N/A   Overcast
6:55 AM 53.4 °F 53.4 °F 100% 29.98 in 1.8 mi SW 12.7 mph 16.1 mph N/A   Overcast
7:15 AM 52.7 °F 52.7 °F 100% 29.99 in 2.0 mi SW 10.4 mph - N/A   Overcast
7:35 AM 51.8 °F 51.8 °F 100% 30.00 in 2.5 mi SW 8.1 mph - N/A   Scattered Clouds
7:55 AM 51.1 °F 51.1 °F 100% 30.00 in 2.5 mi SW 8.1 mph - N/A   Clear
8:15 AM 51.3 °F 51.1 °F 99% 29.99 in 3.0 mi SW 10.4 mph - N/A   Clear
8:35 AM 52.0 °F 51.8 °F 99% 30.01 in 4.0 mi SW 8.1 mph - N/A   Clear
9:15 AM 55.6 °F 50.0 °F 81% 30.02 in 10.0 mi WSW 10.4 mph - N/A   Clear
9:35 AM 57.4 °F 48.7 °F 73% 30.03 in 10.0 mi WSW 12.7 mph - N/A   Clear
9:55 AM 60.6 °F 46.2 °F 59% 30.03 in 10.0 mi WSW 12.7 mph 19.6 mph N/A   Clear
10:15 AM 63.5 °F 42.6 °F 47% 30.04 in 10.0 mi WSW 13.8 mph - N/A   Clear
10:35 AM 65.8 °F 37.4 °F 35% 30.05 in 10.0 mi WSW 15.0 mph 24.2 mph N/A   Clear
10:55 AM 67.5 °F 36.9 °F 32% 30.05 in 10.0 mi West 15.0 mph 21.9 mph N/A   Clear
11:15 AM 70.0 °F 34.2 °F 27% 30.04 in 10.0 mi WSW 15.0 mph 20.7 mph N/A   Clear
11:35 AM 71.8 °F 30.4 °F 22% 30.04 in 10.0 mi West 15.0 mph 23.0 mph N/A   Clear
11:55 AM 72.5 °F 28.2 °F 19% 30.04 in 10.0 mi West 16.1 mph 24.2 mph N/A   Clear
12:15 PM 72.5 °F 28.4 °F 19% 30.03 in 10.0 mi WNW 12.7 mph 21.9 mph N/A   Clear
12:35 PM 72.9 °F 30.4 °F 21% 30.02 in 10.0 mi West 15.0 mph 20.7 mph N/A   Clear
12:55 PM 73.8 °F 30.4 °F 20% 30.01 in 10.0 mi West 12.7 mph 17.3 mph N/A   Clear
1:15 PM 75.7 °F 28.0 °F 17% 29.99 in 10.0 mi WNW 10.4 mph 16.1 mph N/A   Clear
1:35 PM 76.8 °F 25.5 °F 15% 29.98 in 10.0 mi West 11.5 mph - N/A   Clear
1:55 PM 77.0 °F 22.8 °F 13% 29.98 in 10.0 mi WNW 4.6 mph 16.1 mph N/A   Clear
2:15 PM 77.7 °F 23.4 °F 13% 29.98 in 10.0 mi NNW 6.9 mph - N/A   Clear
2:35 PM 77.2 °F 23.5 °F 14% 29.98 in 10.0 mi WNW 10.4 mph - N/A   Clear
2:55 PM 77.5 °F 23.7 °F 14% 29.98 in 10.0 mi WNW 5.8 mph - N/A   Clear
3:15 PM 77.0 °F 23.5 °F 14% 29.98 in 10.0 mi NW 6.9 mph - N/A   Clear
3:35 PM 77.0 °F 23.5 °F 14% 29.97 in 10.0 mi North 6.9 mph - N/A   Clear
3:55 PM 76.6 °F 23.5 °F 14% 29.96 in 10.0 mi NW 3.5 mph - N/A   Clear
4:15 PM 76.1 °F 24.1 °F 14% 29.97 in 10.0 mi West 4.6 mph - N/A   Clear
4:35 PM 76.6 °F 23.9 °F 14% 29.97 in 10.0 mi WSW 9.2 mph - N/A   Clear
4:55 PM 75.0 °F 23.9 °F 15% 29.97 in 10.0 mi West 3.5 mph - N/A   Clear
5:15 PM 72.3 °F 24.6 °F 17% 29.96 in 10.0 mi WSW 3.5 mph - N/A   Clear
5:35 PM 71.1 °F 25.5 °F 18% 29.97 in 10.0 mi West 4.6 mph - N/A   Clear
5:55 PM 69.1 °F 25.7 °F 20% 29.98 in 10.0 mi West 4.6 mph - N/A   Clear
6:15 PM 68.2 °F 24.1 °F 19% 29.97 in 10.0 mi WSW 6.9 mph - N/A   Clear
6:35 PM 63.3 °F 25.2 °F 23% 29.99 in 7.0 mi North 4.6 mph - N/A   Clear
6:55 PM 60.1 °F 24.1 °F 25% 30.00 in 10.0 mi Calm Calm - N/A   Clear
7:15 PM 59.4 °F 27.9 °F 30% 30.00 in 10.0 mi NW 3.5 mph - N/A   Clear
7:35 PM 56.8 °F 27.3 °F 32% 30.02 in 10.0 mi North 8.1 mph - N/A   Clear
7:55 PM 57.0 °F 28.9 °F 34% 30.02 in 10.0 mi NNW 5.8 mph - N/A   Clear
8:15 PM 57.2 °F 26.2 °F 31% 30.03 in 10.0 mi NNW 4.6 mph - N/A   Clear
8:35 PM 58.5 °F 28.0 °F 31% 30.04 in 10.0 mi NNW 8.1 mph - N/A   Clear
8:55 PM 56.5 °F 27.9 °F 33% 30.06 in 10.0 mi NNW 5.8 mph - N/A   Clear
9:15 PM 55.6 °F 28.4 °F 35% 30.06 in 10.0 mi NNW 4.6 mph - N/A   Clear
9:35 PM 54.7 °F 29.1 °F 38% 30.07 in 10.0 mi NW 3.5 mph - N/A   Clear
9:55 PM 55.2 °F 29.5 °F 37% 30.07 in 10.0 mi NW 5.8 mph - N/A   Clear
10:15 PM 53.8 °F 30.2 °F 41% 30.07 in 10.0 mi NW 4.6 mph - N/A   Clear
10:35 PM 53.8 °F 29.5 °F 39% 30.08 in 10.0 mi NNW 5.8 mph - N/A   Clear
10:55 PM 54.0 °F 29.7 °F 39% 30.09 in 10.0 mi NW 5.8 mph - N/A   Clear
11:15 PM 53.4 °F 30.0 °F 41% 30.09 in 10.0 mi NW 3.5 mph - N/A   Clear
11:35 PM 51.6 °F 30.0 °F 44% 30.09 in 10.0 mi NW 4.6 mph - N/A   Clear
11:55 PM 51.8 °F 29.7 °F 43% 30.10 in 10.0 mi NNW 8.1 mph - N/A   Clear